Regional Weather Roundup
Issued by NWS Little Rock, AR

Home | Current Version | Previous Version | Graphics & Text | Print | Product List | Glossary On
Versions: 1 2 3 4 5 6 7 8 9 10 11 12 13 14 15 16 17 18 19 20 21 22 23 24 25 26 27 28 29 30 31 32 33 34 35 36 37 38 39 40 41 42 43 44 45 46 47 48 49 50
000
ASUS44 KLZK 092305
RWRLZK

WEATHER ROUNDUP FOR ARKANSAS
NATIONAL WEATHER SERVICE LITTLE ROCK AR
600 PM CDT WED JUL 09 2014

NOTE: "FAIR" INDICATES FEW OR NO CLOUDS BELOW 12,000 FEET WITH NO
SIGNIFICANT WEATHER AND/OR OBSTRUCTIONS TO VISIBILITY.

ARZ001-003-010-029-100000-
NORTHWEST ARKANSAS

CITY           SKY/WX    TMP DP  RH WIND       PRES   REMARKS
FAYETTEVILLE   MOSUNNY   83  63  50 CALM      30.02F
FORT SMITH     MOSUNNY   85  68  56 SW5       29.98F HX  88
HARRISON       SUNNY     84  58  40 N5        30.04F
BENTONVILLE    SUNNY     84  59  42 N6        30.04S
ROGERS         SUNNY     82  60  47 N6        30.05S
SILOAM SPGS    MOSUNNY   84  61  45 NE6       30.04S
HIGHFILL       SUNNY     86  61  42 N8        30.03F HX  86
SPRINGDALE     MOSUNNY   84  61  45 NE8       30.05F
$$

ARZ004-005-016-100000-
NORTH CENTRAL ARKANSAS

CITY           SKY/WX    TMP DP  RH WIND       PRES   REMARKS
BATESVILLE     MOSUNNY   86  64  48 CALM      29.99S HX  87
FLIPPIN          N/A     86  59  39 N3        30.02S HX  85
MTN HOME       MOSUNNY   82  62  50 N3        30.01F
$$

ARZ040-041-100000-
WEST CENTRAL ARKANSAS

CITY           SKY/WX    TMP DP  RH WIND       PRES   REMARKS
MENA           MOSUNNY  N/A N/A N/A CALM      30.02F
MOUNT IDA      MOSUNNY   83  72  69 CALM      30.00S HX  88
$$

ARZ009-017-025-026-028-100000-
NORTHEAST ARKANSAS

CITY           SKY/WX    TMP DP  RH WIND       PRES   REMARKS
CORNING        LGT RAIN  84  64  51 NW10      29.98F HX  86
JONESBORO      MOSUNNY   86  65  49 N6        29.98S HX  88
NEWPORT        MOSUNNY   85  70  60 S5        29.99F HX  89
WALNUT RIDGE   SUNNY     86  63  45 NW10      29.97F HX  87
BLYTHEVILLE    MOSUNNY   84  67  56 N8        29.98S HX  86
$$

ARZ022-023-033-042-044-100000-
CENTRAL ARKANSAS

CITY           SKY/WX    TMP DP  RH WIND       PRES   REMARKS
LITTLE ROCK    PTSUNNY   86  66  51 S5        29.98F HX  88
N LITTLE ROCK  PTSUNNY   84  70  63 NW3       29.98F HX  88
JACKSONVILLE   SUNNY     87  69  56 W3        29.99S HX  91
SEARCY         MOSUNNY   87  71  58 VRB6      29.99F HX  92
HOT SPRINGS    MOSUNNY   85  71  63 W8        30.00F HX  90
RUSSELLVILLE   MOSUNNY   84  71  65 CALM      29.98F HX  89
CLINTON        FAIR      88  70  55 CALM      29.99F HX  92
$$

ARZ036-100000-
EAST ARKANSAS

CITY           SKY/WX    TMP DP  RH WIND       PRES   REMARKS
WEST MEMPHIS   SUNNY     83  73  72 S3        29.97F HX  89
$$

ARZ050-053-066-070-073-100000-
SOUTHWEST ARKANSAS

CITY           SKY/WX    TMP DP  RH WIND       PRES   REMARKS
ARKADELPHIA    FAIR      82  74  77 S5        30.01F HX  88
CAMDEN         MOSUNNY   86  66  51 NW3       30.01S HX  88
TEXARKANA      PTSUNNY   83  70  64 NE7       30.00S HX  87
EL DORADO      MOSUNNY   86  70  58 SW3       30.00S HX  90
DE QUEEN       MOSUNNY   83  72  69 CALM      29.98F HX  88
$$

ARZ056-057-069-100000-
SOUTHEAST ARKANSAS

CITY           SKY/WX    TMP DP  RH WIND       PRES   REMARKS
PINE BLUFF     MOSUNNY   82  70  66 SW7       30.00S HX  86
MONTICELLO     PTSUNNY   82  68  62 SW3       30.00F HX  85

$$




USA.gov is the U.S. government's official web portal to all federal, state and local government web resources and services.